(364) Isara
ephemeris date magn radius delta ra dec elong phase
Today18 Jul 202515.02.313 AU2.984 AU10h37m+13°19'40.8°16.7°
Opposition28 May 202613.22.546 AU1.537 AU16h28m-15°31'173.8°2.5°
(364) Isara - 2025-07-18
astro.vanbuitenen.nl


 
-1 year
-1 month
-1 day
Now
+1 day
+1 month
+1 year

The interactive orbit chart above shows the body's path through the solar system and its position at the given date. Green and blue lines are shown perpendicular to the ecliptic plane: Green if the path is above the ecliptic plane, blue if it is below. (Left-click and drag to rotate the view; Right-click and drag to move the view; Use scroll wheel to zoom in our out.)

The orbital elements of Isara are:

            e (Eccentricity)                : 0.1492947
            a (Semimajor axis)              : 2.2202283
            i (Inclination)                 : 6.00619
            Ω (Longitude of ascending node) : 105.50267
            ω (Argument of perihelion)      : 312.98493
            M (Mean anomaly)                : 75.93535
            Epoch                           : 2025 May 05

            L (Longitude of perihelion)     : 58.64493
            B (Latitude of perihelion)      : -4.38998
            P (Orbital period in years)     : 3.31            
        

The light curve chart below shows the estimated development of the minor planet's magnitude.


The all-sky chart below shows the path of the minor planet over the same period as the light curve. The current position is marked yellow.





The following chart shows the path of the minor planet in the next few days. The field of view is optimized for (~10x50) binoculars and finderscopes. A more printer-friendly version of the same chart can be found below.




Ephemerides:
Date       Time       RA (2000)    DEC (2000)    delta   radius  elong  phase   PA    magn
2025-07-18 00:00 UT   10 37 21.1   +13 19 06     2.984    2.313   40.8   16.7   107   15.0 
2025-07-18 22:54 UT   10 39 00.7   +13 09 13     2.993    2.314   40.4   16.5   107   15.0 
2025-07-19 00:00 UT   10 39 05.5   +13 08 44     2.993    2.314   40.3   16.5   107   15.0 
2025-07-20 00:00 UT   10 40 49.9   +12 58 20     3.003    2.316   39.8   16.3   107   15.0 
2025-07-21 00:00 UT   10 42 34.2   +12 47 54     3.012    2.317   39.4   16.1   107   15.0 
2025-07-22 00:00 UT   10 44 18.6   +12 37 26     3.021    2.319   38.9   16.0   107   15.0 
2025-07-23 00:00 UT   10 46 02.9   +12 26 55     3.030    2.321   38.4   15.8   107   15.0 
2025-07-24 00:00 UT   10 47 47.2   +12 16 23     3.039    2.322   37.9   15.6   107   15.0 
2025-07-25 00:00 UT   10 49 31.5   +12 05 49     3.047    2.324   37.4   15.4   107   15.0 
2025-07-26 00:00 UT   10 51 15.7   +11 55 12     3.056    2.325   36.9   15.2   107   15.0 
2025-07-27 00:00 UT   10 52 59.9   +11 44 34     3.065    2.327   36.4   15.0   107   15.0 
2025-07-28 00:00 UT   10 54 44.1   +11 33 54     3.073    2.328   35.9   14.8   107   15.0 
2025-07-29 00:00 UT   10 56 28.3   +11 23 12     3.082    2.330   35.4   14.6   107   15.0 
2025-07-30 00:00 UT   10 58 12.4   +11 12 29     3.090    2.331   34.9   14.4   106   15.0 
2025-07-31 00:00 UT   10 59 56.5   +11 01 44     3.098    2.333   34.4   14.2   106   15.0 
2025-08-01 00:00 UT   11 01 40.5   +10 50 58     3.107    2.335   34.0   14.1   106   15.0 
2025-08-02 00:00 UT   11 03 24.5   +10 40 09     3.115    2.336   33.5   13.9   106   15.0 
2025-08-03 00:00 UT   11 05 08.5   +10 29 20     3.123    2.338   33.0   13.7   106   15.0 
2025-08-04 00:00 UT   11 06 52.4   +10 18 29     3.131    2.339   32.5   13.5   106   15.0 
2025-08-05 00:00 UT   11 08 36.3   +10 07 37     3.138    2.341   32.0   13.3   106   15.0 


    Terminology:
            
    delta:  distance between minor planet and earth in AU
    radius: distance between minor planet and sun in AU
    magn:   magnitude (brightness) estimate    
    ra:     right ascension in hours (24h = 360deg)
    dec:    declination in degrees
    elong:  elongation in degrees (angle sun-earth-minor planet)    
    phase:  phase angle in degrees (angle sun-minor planet-earth)        
    AU:     Astronomical Unit (mean distance between earth and sun: 149597870.7 km
    

Orbital elements provided by the MPC (Minor Planet Center).
Calculations by a modified version of AAPlus, a C# implementation of the AA+ project by PJ Naughter from the algorithms presented in the book "Astronomical Algorithms" by Jean Meeus.
NGC2000 dso catalog and star labels from VizieR as provided by the Strasbourg astronomical Data Center.
Tycho2 catalog from the ESO archive.